User: anonymous   Login
Location: Newark
(45.9456°N, 15.4064°E)
Time: 01:48:49
(UTC+00:00)
Language:

Explorer 7 - Orbit

View from above orbital plane
View from above orbital plane
View from above satellite
View from above satellite

Ground track
Ground track

The orbit data is extracted from the following two-line orbital elements,

1    22U 59009A   20025.53199829 -.00000075 +00000-0 +18017-4 0  9996
2    22 050.2843 057.2956 0139655 068.8926 292.6886 14.95026085448849
Epoch (UTC): 25 January 2020 12:46:04
Eccentricity: 0.0139655
inclination: 50.2843°
perigee height: 485 km
apogee height: 679 km
right ascension of ascending node: 57.2956°
argument of perigee: 68.8926°
revolutions per day: 14.95026085
mean anomaly at epoch: 292.6886°
orbit number at epoch: 44884

The dashed part of the orbit path shows where the satellite is in the earth's shadow,  

DLR